Location: Badlands Tank
(34.7185°N, 107.0376°W)
Time: 04:15:35
(UTC+00:00)

USA 215 - Visible Passes

Search period start: 06 June 2026 00:00
Search period end: 16 June 2026 00:00
Orbit: 1098 x 1109 km, 123.0° (Epoch: 10 January)

Date Brightness Start Highest point End Pass type
(mag) Time Alt. Az. Time Alt. Az. Time Alt. Az.
6 Jun 4.7 04:08:41 11° E 04:13:48 28° NNE 04:19:09 10° NNW visible
6 Jun 3.0 05:56:01 83° S 05:56:16 86° SW 06:02:50 10° NW visible
6 Jun 5.4 07:43:21 11° W 07:43:21 11° W 07:43:51 10° W visible
7 Jun 5.3 03:27:42 10° ENE 03:31:45 18° NNE 03:35:48 10° NNW visible
7 Jun 3.8 05:11:16 35° E 05:13:40 50° NE 05:19:54 10° NNW visible
7 Jun 4.2 06:58:35 33° W 06:58:35 33° W 07:02:44 10° WNW visible
8 Jun 5.5 02:47:23 10° NE 02:49:55 13° NNE 02:52:27 10° NNW visible
8 Jun 4.7 04:26:30 12° E 04:31:19 28° NNE 04:36:41 10° NNW visible
8 Jun 3.1 06:13:50 86° WSW 06:13:50 86° WSW 06:20:21 10° NW visible
8 Jun 5.4 08:01:09 11° W 08:01:09 11° W 08:01:20 10° W visible
9 Jun 5.3 03:45:12 10° ENE 03:49:15 18° NNE 03:53:19 10° NNW visible
9 Jun 3.8 05:29:02 37° E 05:31:11 50° NE 05:37:25 10° NNW visible
9 Jun 4.3 07:16:22 32° W 07:16:22 32° W 07:20:15 10° WNW visible
10 Jun 5.5 03:04:52 10° NE 03:07:26 13° NNE 03:09:58 10° NNW visible
10 Jun 4.7 04:44:15 13° E 04:48:50 28° NNE 04:54:12 10° NNW visible
10 Jun 3.1 06:31:35 82° W 06:31:35 82° W 06:37:52 10° NW visible
11 Jun 5.3 04:02:42 10° ENE 04:06:46 18° NNE 04:10:51 10° NNW visible
11 Jun 3.8 05:46:46 39° E 05:48:42 50° NE 05:54:57 10° NNW visible
11 Jun 4.4 07:34:05 30° W 07:34:05 30° W 07:37:46 10° WNW visible
12 Jun 5.6 03:22:22 10° NE 03:24:56 13° NNE 03:27:29 10° NNW visible
12 Jun 4.7 05:01:56 14° E 05:06:21 28° NNE 05:11:44 10° NNW visible
12 Jun 3.2 06:49:15 79° WNW 06:49:15 79° WNW 06:55:23 10° NW visible
13 Jun 5.4 04:20:12 10° ENE 04:24:17 18° NNE 04:28:22 10° NNW visible
13 Jun 3.8 06:04:24 40° E 06:06:13 50° NE 06:12:28 10° NNW visible
13 Jun 4.4 07:51:44 29° W 07:51:44 29° W 07:55:17 10° WNW visible
14 Jun 5.6 03:39:52 10° NE 03:42:27 13° NNE 03:45:01 10° NNW visible
14 Jun 4.8 05:19:33 14° E 05:23:52 28° NNE 05:29:15 10° NNW visible
14 Jun 3.2 07:06:53 76° WNW 07:06:53 76° WNW 07:12:54 10° NW visible
15 Jun 5.8 02:59:17 10° NNE 03:00:45 11° N 03:02:12 10° NNW visible
15 Jun 5.4 04:37:42 10° ENE 04:41:47 18° NNE 04:45:54 10° NNW visible
15 Jun 3.8 06:21:59 41° E 06:23:44 51° NE 06:29:59 10° NNW visible
15 Jun 4.4 08:09:18 29° W 08:09:18 29° W 08:12:47 10° WNW visible
